Regional Weather Roundup
Issued by NWS Charleston, SC

Home | Current Version | Previous Version | Text Only | Print | Product List | Glossary On
Versions: 1 2 3 4 5 6 7 8 9 10 11 12 13 14 15 16 17 18 19 20 21 22 23 24 25 26 27 28 29 30 31 32 33 34 35 36 37 38 39 40 41 42 43 44 45 46 47 48 49 50
000
ASUS42 KCHS 252228
RWRCHS

REGIONAL WEATHER ROUNDUP
NATIONAL WEATHER SERVICE CHARLESTON SC
600 PM EDT WED MAY 25 2016

NOTE: "FAIR" INDICATES FEW OR NO CLOUDS BELOW 12,000 FEET WITH NO
SIGNIFICANT WEATHER AND/OR OBSTRUCTIONS TO VISIBILITY.

NOT ALL STATIONS ARE QUALITY CONTROLLED. USE DATA WITH CAUTION...
ESPECIALLY DEWPOINT OBSERVATIONS.

SCZ027-030-031-034>040-042>050-252300-
...SOUTHEAST SOUTH CAROLINA...

CITY           SKY/WX    TMP DP  RH WIND       PRES   REMARKS
N CHARLESTON   MOSUNNY   86  59  39 S14       30.17F
WATERFRONT PRK   N/A     81  66  60 S10       30.17F
MOUNT PLEASANT FAIR      82  64  54 S8        30.18F
JOHNS ISLAND   FAIR      82  64  54 S12       30.18F
PINOPOLIS        N/A     91  57  31 VRB2      30.08F HX  90
MONCKS CORNER  FAIR      82  55  39 S7        30.16F
SUMMERVILLE    FAIR      88  64  45 S5        30.17F
BEAUFORT MCAS  MOSUNNY   84  63  49 S6        30.18F
BEAUFORT ARPT  FAIR      81  61  50 S10       30.18F
HILTON HEAD IS SUNNY     86  70  58 S10       30.20F HX  90
WALTERBORO     CLEAR     88  55  33 S10       30.17F
ALLENDALE      MOCLDY    86  57  37 CALM      30.16F

...SOUTHERN MIDLANDS AND PEE DEE...

CITY           SKY/WX    TMP DP  RH WIND       PRES   REMARKS
GEORGETOWN     FAIR      81  61  50 S13       30.19S
KINGSTREE      FAIR      86  52  30 SW3       30.16F
ORANGEBURG     SUNNY     87  52  29 SW7       30.17F
BARNWELL       MOCLDY    90  57  33 SW9       30.17S
AIKEN          FAIR      82  54  36 CALM      30.20F
MANNING        FAIR      86  52  30 S3        30.16F
COLUMBIA       MOSUNNY   89  53  29 SW5       30.15F
SUMTER         SUNNY     88  56  33 W6        30.14F
FLORENCE       SUNNY     88  55  32 SW6       30.16F
MYRTLE BEACH   NOT AVBL
N MYRTLE BEACH SUNNY     78  69  73 S13       30.18F

$$

GAZ063-065-086>088-099>101-113>116-118-119-134>141-150-252300-
...SOUTHEAST GEORGIA...

CITY           SKY/WX    TMP DP  RH WIND       PRES   REMARKS
SAVANNAH ARPT  MOSUNNY   85  55  35 S10       30.18F
HUNTER AAF     SUNNY     83  62  47 SE9       30.16F
FORT STEWART   SUNNY     86  61  43 SE8       30.15F
STATESBORO     SUNNY     88  59  37 S3        30.17S
SYLVANIA       CLEAR     89  55  31 CALM      30.17F
CLAXTON        FAIR      87  61  41 S3        30.17S

...CSRA...CENTRAL AND FAR SOUTHEAST GEORGIA...

CITY           SKY/WX    TMP DP  RH WIND       PRES   REMARKS
THOMSON        MOSUNNY   89  60  37 S5        30.21S
AUGUSTA-BUSH   SUNNY     87  51  28 VRB3      30.15F
AUGUSTA-DANIEL MOSUNNY   88  53  30 E5        30.17F
SWAINSBORO     FAIR      88  54  31 S7        30.17F
VIDALIA        MOSUNNY   88  55  33 S3        30.17S
EASTMAN        FAIR      88  56  33 S5        30.18F
HAZLEHURST     FAIR      87  53  30 CALM      30.15F
ALMA           SUNNY     88  57  34 E3        30.16F
WAYCROSS       CLOUDY    87  58  36 SE8       30.16F
JESUP          FAIR      81  55  41 SE8       30.17F
BAXLEY         FAIR      90  54  29 SW3       30.16F
BRUNSWICK      SUNNY     88  63  42 SE7       30.19F
SAINT SIMONS   SUNNY     80  65  59 SE13      30.19F

$$

SCZ027-028-034-036>038-045-046-048>050-GAZ119-141-252300-
...LAKE AND SUPPLEMENTAL COASTAL OBSERVATIONS...

STATION/POSITION TIME  TEMP    WIND        PRES    WAVE   SWELL
                       AIR SEA DIR/SP/G            HT/PER HT/PER/DIR
                 (UTC) (F)     (DEG/KT/KT) (MB)    (FT/S) (FT/S/D)
WINYAH BAY       2145   81     200/ 11     1021.0F
LAKE MURRAY      2100   85     110/  2/  2 1020.7F
ACE BASIN NERRS  2100   83     160/  1     1023.0S
FORT PULASKI     2200      76  150/  6/ 11 1022.7F
SAPELO ISLAND    2200   84     150/  9     1022.0F

$$

ANZ835-935-AMZ111-154-330-350-352-354-370-450-454-472-252300-
...C-MAN AND BUOY OBSERVATIONS...

STATION/POSITION TIME  TEMP    WIND        PRES    WAVE   SWELL
                       AIR SEA DIR/SP/G            HT/PER HT/PER/DIR
                 (UTC) (F)     (DEG/KT/KT) (MB)    (FT/S) (FT/S/D)
BUOY 41004       2150   79 80  200/  6/  6 1022.6F   2/ 9   2/ 9
BUOY 41008       2150   78 78  150/  6/  8 1022.8F   2/ 9   2/ 80/ 9
FOLLY BEACH CMAN 2200   77     190/ 12/ 13 1022.5F
CAPERS NEARSHORE 2208   77 76  200/ 10/ 14 1022.0F
FRIPP NEARSHORE  2208   77 79  180/ 12/ 14 1021.7F


STATION/POSITION TIME  TEMP    WIND        PRES    WAVE   SWELL
                       AIR SEA DIR/SP/G            HT/PER HT/PER/DIR
                 (UTC) (F)     (DEG/KT/KT) (MB)    (FT/S) (FT/S/D)
5E ST. MARYS GA  2151      80                N/A     2/ 9
FRYING PAN BUOY  2200   77 77  200/  8/ 10 1022.5F
BUOY 41025       2150   75 74  230/  8/ 10 1022.5R   2/ 8   2/120/ 8
CAPE LOOKOUT NC  2200   76     210/ 10/ 12 1022.1F
BUOY 41002       2150   75 79   70/  6/  8 1023.0F   2/ 7   2/ 90/ 7
BUOY 41010       2120   76 78   50/ 12/ 16 1022.1S
ST AUGUSTINE FL  2200   78 81  120/  8/ 10 1023.5F


$$




USA.gov is the U.S. government's official web portal to all federal, state and local government web resources and services.